Zurück zum Katalog

STARLINK-31957

AktivKommunikationVLEO
NORAD 59926·PAYLOAD·🇺🇸 United States

Gestartet Jun 1, 2024 von Cape Canaveral Space Force Station

Loading…

Nächste Überflüge (nächste 24 Stunden)

TLE

AktuellSource: CelesTrak SupGP

Epoche: Sep 14, 2026, 20:53 UTC

1 59926C 24106E   26257.87062500 -.00011619  00000+0 -42079-3 0  2575
2 59926  43.0037 343.7597 0001724 269.8447 315.1508 15.27586732    12

Verfolge STARLINK-31957 in Echtzeit mit AllMySat

Download on the App Store